Flag for U.S.A. Weather past 2 weeks in Rancho Cucamonga, California, U.S.A.

Now
61 °F

Broken clouds.


Feels Like: 61 °F
Forecast: 53 / 64 °F
Wind: 13 mph from Southwest

Location: Ontario International Airport

Current Time: Apr 25, 2015 at 12:08:59 PM

Latest Report: Apr 25, 2015 at 10:53 AM


Visibility: 10 mi

Pressure: 29.96 "Hg

Humidity: 62%

Dew point: 48 °F

Location of Rancho CucamongaLocation

Historic Weather in Rancho Cucamonga — Graph

°F

Rancho Cucamonga temperature yesterday

Maximum temperature yesterday: 63 °F (at 12:53 PM)
Minimum temperature yesterday: 56 °F (at 1:53 AM)
Average temperature yesterday: 59 °F

Past Weeks' High & Low Weather Summary

 TemperatureHumidityPressure
High85 °F (Apr 17, 2:53 PM)90% (Apr 14, 1:53 AM)30.09 "Hg (Apr 14, 1:53 AM)
Low51 °F (Apr 11, 3:53 AM)6% (Apr 15, 10:53 PM)29.78 "Hg (Apr 20, 3:53 PM)
Average64 °F51%29.93 "Hg
* Reported Apr 10 10:53 AM — Apr 25 10:53 AM, Rancho Cucamonga, Weather by CustomWeather, © 2015

Note: Actual official high and low records may vary slightly from our data, if they occured in-between our weather recording intervals... More about our weather records

Advertising

Rancho Cucamonga weather history for previous 24 hours

 ConditionsComfort  
Time TempWeatherWind HumidityBarometerVisibility
10:53 AM
Sat, Apr 25
61 °FBroken clouds.13 mph62%29.96 "Hg10 mi
9:53 AM59 °FPartly sunny.9 mph69%29.97 "Hg10 mi
8:53 AM57 °FMostly cloudy.9 mph72%29.97 "Hg10 mi
7:53 AM56 °FPartly sunny.8 mph72%29.96 "Hg10 mi
6:53 AM56 °FMostly cloudy.6 mph75%29.96 "Hg10 mi
5:53 AM56 °FMostly cloudy.6 mph81%29.95 "Hg9 mi
4:53 AM56 °FOvercast.7 mph81%29.96 "Hg10 mi
4:03 AM56 °FMostly cloudy.5 mph81%29.97 "Hg10 mi
3:53 AM56 °FMostly cloudy.8 mph81%29.95 "Hg10 mi
2:53 AM56 °FMostly cloudy.8 mph81%29.96 "Hg10 mi
1:53 AM56 °FMostly cloudy.8 mph81%29.97 "Hg10 mi
12:53 AM56 °FMostly cloudy.9 mph81%29.97 "Hg10 mi
12:00 AM57 °FPartly cloudy.7 mph78%29.99 "Hg10 mi
10:53 PM
Fri, Apr 24
57 °FPassing clouds.8 mph78%29.99 "Hg10 mi
9:53 PM58 °FPassing clouds.9 mph75%29.99 "Hg10 mi
8:53 PM58 °FMostly cloudy.10 mph75%29.98 "Hg10 mi
7:53 PM59 °FMostly cloudy.9 mph72%29.97 "Hg10 mi
6:53 PM59 °FMore clouds than sun.12 mph72%29.97 "Hg10 mi
5:53 PM61 °FMostly cloudy.12 mph65%29.96 "Hg10 mi
3:53 PM63 °FMostly cloudy.10 mph60%29.96 "Hg10 mi
2:53 PM63 °FMostly cloudy.14 mph63%29.97 "Hg10 mi
1:53 PM63 °FMostly cloudy.7 mph60%29.98 "Hg10 mi
12:53 PM63 °FBroken clouds.10 mph63%29.98 "Hg10 mi
Weather by CustomWeather, © 2015

See weather overviewHow to use our weather pages